User: anonymous   Login
Location: Unspecified
(0.0000°N, 0.0000°E)
Time: 19:29:40
(UTC+02:00)
Language:

SeaSat 1 - Orbit

View from above orbital plane
View from above orbital plane
View from above satellite
View from above satellite

Ground track
Ground track

The orbit data is extracted from the following two-line orbital elements,

1 10967U 78064A   17229.23979900 -.00000059  00000-0  22896-4 0  9994
2 10967 108.0159  67.0335 0000876 266.4723  93.6321 14.43657215 55411
Epoch (UTC): 17 August 2017 05:45:18
Eccentricity: 0.0000876
inclination: 108.0159°
perigee height: 746 km
apogee height: 747 km
right ascension of ascending node: 67.0335°
argument of perigee: 266.4723°
revolutions per day: 14.43657215
mean anomaly at epoch: 93.6321°
orbit number at epoch: 5541

The dashed part of the orbit path shows where the satellite is in the earth's shadow,  

DLR